Dewpoint
40 42 43 45 46 48 50 55 55 54 53 52 51 50 49 45 40 34 26 31 25 15 23 19 19 18 16 20 18 18 13 14 8 10 8 7 0 -0 1 -1 2 -0 2 3 4 2 1 -1 -1 -9 -7 3 4 6
41 40 42 43 44 45 47 49 54 54 53 52 51 50 49 46 41 34 21 30 33 25 23 23 22 22 20 20 25 18 21 17 14 11 14 14 10 8 5 8 4 0 2 -2 2 2 1 0 -1 1 3 4 6 7
41 41 40 40 42 44 45 47 49 50 53 53 52 51 50 47 43 34 28 29 27 18 20 21 19 22 24 23 23 13 18 18 19 24 18 14 10 12 8 4 2 3 8 1 -3 1 -3 1 2 4 5 6 8 10
36 40 41 40 40 41 43 45 47 48 49 52 52 52 51 48 45 38 26 29 23 21 13 22 24 23 25 25 22 23 21 21 19 23 10 9 3 12 7 10 8 6 7 4 2 1 0 1 2 5 7 8 9 10
35 36 40 41 40 39 40 43 45 47 48 49 50 52 51 49 47 41 34 30 32 20 19 21 23 24 25 24 21 20 19 17 16 10 11 6 17 14 12 11 8 8 7 6 10 2 -3 -1 7 8 7 8 10 11
35 35 36 40 41 40 39 39 43 45 47 48 48 49 52 50 44 36 31 34 31 29 23 23 23 23 22 23 21 20 25 25 23 18 17 20 15 12 8 8 11 9 8 7 3 4 5 7 7 9 9 9 11 13
36 35 35 36 39 40 40 39 39 42 45 47 48 49 50 47 40 37 35 35 30 32 26 27 24 24 23 23 23 23 24 23 22 19 20 19 15 14 9 8 16 12 12 9 11 9 7 8 6 11 10 11 12 10
37 36 35 34 35 40 40 39 39 40 43 46 47 48 49 42 38 34 35 37 34 33 33 29 23 18 25 21 19 24 22 22 21 21 19 17 16 14 9 10 12 13 15 13 10 9 8 12 11 9 10 10 8 8
39 38 36 35 34 36 40 39 38 39 42 47 46 40 37 34 31 29 35 35 35 32 27 29 23 19 23 22 21 21 23 15 21 17 16 15 12 10 12 14 13 12 11 8 13 11 10 10 9 7 7 7 7 7
40 40 38 37 35 36 38 39 38 38 43 41 36 33 29 30 36 35 31 27 28 30 28 25 21 17 19 19 18 17 20 17 13 13 16 14 11 13 15 17 16 14 11 9 9 11 10 7 6 5 6 7 7 7
40 40 40 39 38 38 38 40 39 39 41 35 29 25 31 36 32 30 24 23 23 22 25 24 19 15 21 17 17 20 16 17 13 14 13 12 10 11 14 16 19 16 13 10 6 4 6 4 4 7 6 6 6 7
40 40 40 39 38 37 37 39 39 40 37 34 30 32 31 27 26 24 20 22 20 21 24 21 18 20 21 24 20 19 16 15 16 15 11 10 10 13 16 16 17 16 14 9 8 6 5 6 6 5 6 6 7 7
40 40 40 39 38 36 36 38 39 38 34 33 29 25 24 23 19 18 17 19 20 23 21 19 18 18 20 22 18 17 13 13 16 10 10 10 9 18 15 15 14 13 13 9 5 4 4 5 6 6 6 6 6 9
40 40 40 39 38 38 37 38 39 37 34 31 25 19 20 17 18 18 19 19 21 21 19 19 17 19 19 17 16 14 15 13 9 9 12 11 13 15 14 14 12 9 11 10 7 5 5 6 6 7 8 9 11 13
40 40 40 39 38 38 38 38 39 37 34 28 27 21 20 20 19 21 22 21 21 20 20 18 19 19 17 16 16 12 10 10 10 13 11 11 16 16 12 12 13 8 7 7 6 6 6 7 8 9 11 12 13 13
40 40 39 39 38 38 38 38 39 34 32 29 28 25 23 21 20 22 21 20 20 20 23 22 17 16 16 15 11 11 11 12 15 15 14 18 16 13 9 9 11 9 8 7 7 6 7 8 9 10 12 12 12 13
38 36 39 39 38 38 38 35 34 30 29 27 25 26 23 23 23 21 21 20 20 21 21 21 16 16 17 13 12 13 13 15 17 17 18 18 13 9 7 8 7 7 7 8 8 8 8 10 11 12 10 12 12 12
35 37 39 39 38 37 35 34 30 28 25 24 23 23 25 23 21 20 19 20 22 22 24 20 20 16 15 16 16 15 16 18 18 21 19 16 8 8 9 8 7 7 7 8 8 8 10 11 10 10 11 12 12 12
36 39 38 37 37 33 29 27 27 23 22 19 18 20 21 21 21 20 20 21 24 26 24 20 19 18 19 19 18 20 19 18 15 11 9 8 8 8 9 9 8 8 8 8 8 9 10 10 9 11 12 12 11 13
38 38 36 35 35 29 24 21 22 20 19 18 17 17 17 18 20 21 22 24 22 22 20 18 19 22 21 21 22 24 25 15 8 7 11 8 8 10 9 8 7 8 9 9 10 11 10 10 11 11 12 12 12 14
38 37 36 32 25 25 23 18 16 16 16 16 15 16 15 18 18 18 19 23 20 19 19 21 22 22 20 20 20 22 22 13 6 7 8 12 9 9 10 9 10 9 8 9 10 10 11 9 10 12 13 14 13 13
31 31 26 26 20 17 16 17 16 15 14 12 14 13 13 13 14 17 20 18 17 16 20 20 21 22 21 21 19 11 11 9 5 5 8 10 9 11 10 10 9 9 9 9 10 11 12 11 12 12 12 12 14 14
31 28 24 22 17 16 12 15 13 13 12 10 12 12 11 12 15 20 14 15 15 18 19 20 20 19 21 22 21 12 8 7 6 8 12 9 9 9 10 10 10 10 8 9 10 11 12 13 14 12 12 14 14 14
29 26 23 19 16 10 11 11 12 11 10 9 9 10 10 11 14 13 11 12 15 17 18 18 18 17 17 17 19 17 8 9 14 17 17 14 12 13 12 11 12 11 9 11 11 11 12 13 15 14 13 13 12 11
23 20 20 13 11 9 8 8 8 7 7 8 9 8 7 9 8 8 8 9 14 15 16 17 17 17 19 19 17 17 16 17 18 16 16 15 14 13 13 13 13 13 13 12 11 11 11 12 13 13 13 12 10 10
19 16 16 12 10 10 8 7 7 7 8 8 8 6 7 6 7 9 8 6 6 9 6 5 6 12 17 19 19 17 17 18 18 15 15 16 14 13 12 11 11 12 13 12 12 11 11 12 12 12 11 12 14 11
16 14 12 14 11 10 10 9 9 9 8 9 6 5 6 7 10 6 6 4 3 4 5 6 6 7 9 13 18 18 18 19 18 16 16 16 17 17 15 12 10 12 13 12 11 10 10 10 10 10 10 9 9 10
13 12 12 11 12 11 10 10 9 9 9 8 6 6 7 8 5 0 4 4 3 3 4 6 9 10 10 15 17 15 14 14 14 14 14 12 11 13 13 11 12 14 13 12 11 11 10 10 9 9 8 9 9 8
10 12 11 10 11 12 11 10 9 8 7 9 7 7 2 -0 -1 -2 -1 0 1 3 4 5 6 10 11 13 14 15 14 14 14 11 9 8 10 12 12 15 17 14 13 14 14 11 10 9 9 8 9 8 8 7
9 12 11 10 11 10 4 3 3 3 5 6 7 5 2 1 0 1 -1 -2 -2 -0 4 5 3 7 8 9 9 10 10 12 16 16 11 9 12 12 13 14 12 12 14 15 15 15 16 15 15 11 8 8 8 8
9 10 8 6 3 -0 0 1 3 4 5 5 6 5 1 0 1 1 -1 -2 -2 -1 -1 -3 -0 -1 -1 2 7 9 10 10 12 14 16 15 14 12 12 12 11 12 13 13 13 15 16 13 13 10 9 9 8 9
7 6 6 4 1 -0 1 2 4 4 5 3 1 4 3 2 -4 -2 0 -1 -4 -5 -2 -4 -5 -4 -3 -1 2 5 11 8 9 10 10 10 10 11 11 10 10 10 11 11 11 12 12 12 11 11 10 9 9 8
4 4 3 2 -0 0 1 3 4 2 2 -0 -2 -1 -1 -2 -6 -2 2 2 -1 -3 -3 -3 -3 -3 -2 -1 -1 2 5 7 13 16 14 12 11 9 7 8 9 9 9 9 8 8 9 9 9 9 8 8 7 6
Wind_Speed
14 13 12 13 16 21 27 23 30 30 30 29 28 27 25 24 20 9 3 8 7 6 5 6 7 7 6 6 7 6 4 2 4 6 6 5 6 5 4 5 6 10 11 10 7 7 12 11 6 2 5 6 8 5
14 14 12 12 13 14 20 30 23 29 29 30 30 30 29 28 27 15 6 6 4 3 4 1 2 2 3 6 9 12 4 6 10 5 6 2 7 4 5 8 2 9 13 5 16 11 2 12 5 9 5 8 4 6
14 14 15 14 12 12 14 16 18 20 21 28 31 33 33 32 31 24 8 11 6 3 4 3 8 6 2 2 1 7 5 5 5 2 5 3 11 7 8 12 5 7 7 8 4 5 12 15 6 5 1 6 8 4
16 16 14 15 15 13 13 11 13 18 19 14 27 32 34 36 36 31 13 12 6 5 5 3 1 2 1 1 2 1 6 7 7 2 2 4 6 5 5 7 10 6 13 10 12 25 22 15 6 1 5 5 10 12
16 17 17 14 14 15 15 14 13 14 17 17 20 29 32 35 35 21 3 7 1 6 4 3 1 2 2 4 5 6 12 7 3 4 4 7 4 4 3 5 15 14 13 13 15 10 4 3 5 1 5 7 7 8
16 17 18 16 14 14 14 16 17 15 16 17 21 24 28 30 25 10 3 11 10 4 2 6 2 1 3 6 7 10 7 5 4 4 4 4 1 3 6 10 11 22 13 14 5 4 4 3 3 3 3 7 7 8
18 18 18 18 17 14 13 13 17 19 17 17 19 20 15 35 26 6 7 4 18 10 3 5 5 1 6 6 2 3 1 2 4 3 6 4 4 6 5 17 6 15 23 18 8 5 7 6 4 3 4 6 8 7
21 19 19 18 19 18 14 13 14 18 20 19 20 23 9 30 11 3 12 10 13 11 5 6 4 5 9 7 6 6 5 3 5 5 3 6 4 6 14 28 16 8 6 14 18 12 4 5 2 6 3 5 11 14
24 22 21 19 18 18 16 12 12 17 25 6 25 34 10 5 4 5 14 12 9 6 9 8 10 10 10 4 4 5 6 7 4 8 6 11 9 18 27 23 21 20 14 6 12 9 6 9 11 9 6 5 9 14
25 24 23 21 19 18 18 14 12 14 17 26 6 4 5 4 32 17 4 3 5 4 5 9 7 10 10 5 5 6 5 6 7 9 7 10 15 21 23 33 17 14 21 14 10 13 11 13 12 6 4 3 4 8
28 26 25 22 20 18 17 15 13 6 14 1 4 4 4 12 2 3 6 8 8 7 9 6 8 12 9 10 9 9 8 7 5 7 10 8 14 12 17 23 27 20 22 21 10 9 14 8 8 8 4 2 4 7
30 28 26 25 22 21 18 17 13 7 2 9 17 8 4 3 3 6 10 5 9 9 8 14 11 6 9 5 5 10 8 8 9 13 7 11 13 18 14 13 18 23 24 24 14 15 12 9 8 6 3 2 4 7
31 29 29 27 25 23 21 20 18 19 17 4 5 7 7 6 8 10 15 7 7 9 12 8 9 8 5 5 5 6 10 13 14 8 10 14 9 10 16 15 20 18 22 22 15 11 10 8 7 6 3 4 6 7
32 31 30 29 27 24 22 23 20 24 5 8 9 10 13 9 12 13 15 14 9 8 19 16 8 6 5 8 6 7 6 7 7 10 16 12 23 22 20 18 25 25 23 24 21 15 12 11 9 7 6 6 4 7
32 32 30 30 29 26 25 26 27 12 7 9 7 9 18 14 8 5 8 9 5 16 21 10 6 4 4 6 7 5 7 10 14 16 11 13 14 19 21 21 23 24 22 21 18 17 15 13 10 7 5 5 3 3
32 31 32 31 29 27 25 23 17 7 5 7 9 8 3 6 10 5 9 9 10 18 8 4 6 5 8 7 8 15 9 17 13 10 12 7 14 18 19 20 21 22 21 20 19 17 15 13 11 7 5 3 1 1
33 22 24 33 30 29 25 8 7 10 9 8 11 7 12 4 13 10 10 10 17 19 9 6 11 11 8 6 8 11 14 7 9 10 7 11 15 17 20 20 20 21 20 20 18 16 14 12 10 8 6 4 2 1
28 21 29 34 31 20 4 11 7 9 10 9 7 11 8 5 7 6 8 22 15 10 10 7 6 8 9 10 13 9 15 14 7 5 8 10 14 17 19 22 20 21 20 19 18 17 15 15 12 9 7 7 3 3
22 22 33 34 23 10 10 9 6 10 9 3 3 3 3 3 2 7 15 21 5 4 7 7 6 9 13 10 8 10 8 8 10 4 4 10 17 22 20 19 20 19 19 19 19 18 17 16 13 12 11 9 6 3
27 33 32 31 20 8 7 4 2 5 8 6 3 7 3 3 8 9 12 18 9 6 8 8 14 12 9 5 4 9 7 8 9 8 6 10 14 19 20 21 19 19 18 17 16 15 13 11 10 11 11 10 8 4
31 15 21 10 3 4 4 7 4 2 7 8 6 9 3 4 5 8 7 12 8 7 11 20 24 17 6 4 4 6 7 12 14 12 11 14 15 17 16 14 18 17 17 17 17 16 15 15 14 12 11 9 7 5
6 17 6 5 4 1 4 1 6 3 2 4 9 6 5 6 7 9 11 8 9 13 13 12 8 11 15 14 10 8 9 13 11 7 13 18 19 20 19 19 20 18 16 18 18 17 14 13 13 13 11 9 7 7
14 6 5 4 4 3 2 2 4 6 5 6 5 6 5 6 6 11 8 8 11 9 13 13 10 8 12 9 7 8 9 14 14 13 15 16 14 14 16 17 17 20 18 13 12 14 15 15 14 13 11 9 8 6
8 5 5 5 4 5 5 3 3 4 5 5 6 5 6 5 4 5 8 7 5 3 9 15 16 14 6 5 14 16 15 13 10 10 15 18 19 16 15 15 14 13 13 15 15 15 15 15 15 12 11 9 7 6
8 6 7 5 3 6 6 8 6 4 5 8 7 4 5 4 7 6 7 5 6 7 8 7 9 11 13 11 9 10 9 14 18 17 12 13 14 14 13 10 10 13 16 18 16 16 16 15 15 15 13 11 10 7
7 3 7 10 8 8 11 10 13 10 7 7 6 6 3 5 5 9 4 6 6 7 10 13 13 14 13 10 8 11 14 10 11 13 12 15 20 24 24 23 19 14 12 15 19 19 18 17 16 15 13 11 11 9
6 6 2 1 5 7 5 3 5 4 8 9 8 11 7 6 9 1 4 5 6 10 13 12 11 13 14 15 3 6 10 12 10 8 11 11 8 12 20 28 28 16 17 18 19 20 22 21 19 17 15 11 9 9
3 5 7 9 3 4 5 7 8 10 6 6 12 9 8 7 2 6 4 10 14 15 15 15 13 11 13 14 9 13 12 13 16 16 15 11 6 6 8 10 14 20 18 17 18 17 18 20 19 18 15 14 11 9
2 5 6 6 4 5 7 7 8 3 2 7 7 3 3 4 6 7 8 17 17 14 12 12 11 10 7 4 6 6 12 16 17 15 18 14 10 6 8 13 15 15 15 16 17 16 17 17 17 17 16 13 10 8
2 1 2 5 5 7 1 2 2 1 2 3 4 5 4 4 3 8 12 14 15 15 13 9 11 10 6 3 3 8 8 6 5 8 13 16 12 11 13 14 16 15 16 18 17 16 16 14 14 11 11 10 10 9
2 1 2 2 2 1 1 1 1 1 2 3 4 4 5 5 3 9 18 15 14 13 16 18 15 17 15 13 7 4 6 8 7 5 4 8 13 17 14 13 13 14 16 17 18 17 18 15 15 15 14 14 13 11
3 1 3 2 1 1 1 1 1 2 2 3 3 2 3 3 5 11 16 17 17 19 17 15 16 14 16 14 11 7 9 9 10 7 5 7 9 11 12 12 13 13 15 16 16 16 15 17 16 16 17 16 14 14
1 2 3 4 3 2 2 2 2 3 4 4 4 4 4 4 4 8 9 13 12 12 14 12 10 10 12 12 12 10 9 7 4 13 12 11 11 12 11 11 11 12 14 14 13 13 14 13 13 14 14 13 13 12
Wind_Direction
344 348 346 358 0 348 2 242 216 210 203 203 198 195 192 184 184 172 217 185 177 211 248 207 188 173 154 179 200 152 119 203 145 206 222 233 227 226 246 231 199 202 182 213 195 251 307 172 148 241 286 308 314 318
325 327 332 343 346 341 341 360 236 210 209 204 199 195 191 187 180 170 204 184 136 203 240 223 236 245 220 169 159 177 205 172 185 173 221 239 242 207 220 276 177 241 209 215 205 244 213 192 221 256 281 296 299 328
309 313 320 325 330 326 344 340 346 353 237 213 203 196 192 188 183 181 173 153 114 199 268 232 226 201 160 175 193 187 229 175 191 185 166 211 251 163 222 235 236 234 188 245 314 270 263 252 236 228 195 314 319 331
296 303 302 311 319 325 323 323 325 331 341 269 218 209 200 191 187 182 184 182 145 134 233 229 93 281 13 182 158 88 141 113 113 116 169 216 249 197 247 270 238 208 160 224 254 277 275 281 231 165 319 320 330 337
289 288 292 292 308 315 320 319 311 317 317 316 333 229 209 198 188 176 129 211 262 200 222 216 22 166 128 146 136 133 140 118 122 151 196 229 233 267 267 281 244 185 209 200 257 234 217 207 168 312 295 309 314 331
275 284 283 289 289 302 312 317 322 310 303 306 309 326 228 199 145 114 261 226 214 118 8 289 4 107 110 127 137 146 134 123 132 164 227 238 176 211 271 257 251 212 213 207 260 173 174 168 242 163 283 310 319 336
266 271 280 281 281 282 294 306 311 317 317 304 294 295 277 158 160 166 200 145 168 123 124 260 239 163 140 124 118 115 70 122 135 152 230 229 196 195 244 256 273 227 227 223 197 146 272 224 225 220 286 299 317 335
259 259 265 272 278 274 277 293 309 309 311 309 301 291 188 135 98 52 22 106 130 102 159 246 247 200 187 167 162 167 150 159 177 205 206 206 175 208 248 242 252 247 230 225 211 201 204 141 241 290 297 326 344 351
263 263 261 264 269 277 274 279 303 307 309 328 110 106 97 63 107 94 76 54 34 128 193 206 215 232 162 142 121 142 157 188 177 217 223 171 205 224 226 245 233 216 207 213 194 192 202 249 272 282 305 338 344 338
250 252 256 259 261 268 271 268 285 291 138 124 77 85 123 102 120 114 66 105 169 248 237 235 137 174 144 142 169 146 181 210 203 228 156 229 252 245 252 243 230 208 201 158 164 204 215 241 240 255 255 270 299 317
243 243 243 244 251 252 257 250 260 267 153 73 107 92 103 123 99 116 174 188 198 226 206 185 172 145 209 161 169 197 186 185 220 202 201 244 259 238 236 233 224 201 187 189 188 190 179 176 186 211 230 264 306 312
238 238 238 237 237 241 245 239 235 188 237 160 115 106 135 187 190 191 202 199 208 234 174 164 176 144 160 164 140 175 187 176 236 145 203 252 247 231 201 199 180 176 175 177 171 153 151 154 171 187 203 288 306 304
234 232 230 230 229 233 236 232 222 142 127 106 104 144 170 167 205 211 198 207 211 195 175 168 149 138 140 175 138 167 187 210 127 198 234 243 247 223 197 177 168 167 166 167 162 152 155 161 172 191 208 255 277 300
234 229 226 222 222 225 226 228 206 162 186 187 173 185 200 195 226 198 202 193 193 145 148 144 126 157 152 163 155 191 193 137 221 237 237 242 236 207 187 180 167 173 174 173 176 170 175 177 183 199 218 238 266 311
231 228 223 218 215 219 221 228 188 174 213 212 187 218 211 222 232 221 170 136 106 143 143 120 89 133 159 173 185 132 176 230 220 238 236 255 214 181 181 178 173 165 165 165 166 175 178 178 173 175 206 223 223 314
227 227 221 212 209 215 219 224 197 152 221 233 220 215 196 203 242 199 192 162 133 146 114 114 150 177 215 199 181 206 194 231 235 217 235 205 182 172 173 177 170 164 168 166 169 172 169 172 168 170 155 169 237 322
222 223 207 205 202 208 209 181 172 189 220 216 224 213 183 214 225 195 160 157 151 152 178 163 193 207 129 200 231 204 224 238 251 247 206 189 186 177 166 158 154 155 159 161 161 163 167 159 146 150 169 138 107 2
216 215 189 191 193 193 162 195 208 196 224 222 212 214 196 197 176 158 152 154 157 196 168 211 144 194 211 211 234 232 235 246 261 261 211 178 164 165 161 152 153 155 158 159 159 159 155 155 165 175 169 145 133 91
202 186 185 185 171 156 177 213 225 201 211 203 230 211 185 185 182 152 157 172 120 129 155 172 217 225 230 231 275 281 241 219 225 205 173 166 168 164 156 150 148 151 153 156 159 167 167 174 173 166 159 155 154 161
185 185 180 176 151 157 191 211 270 188 194 203 182 183 186 183 142 157 160 174 143 153 209 222 221 222 212 228 241 275 276 191 163 166 168 171 169 156 158 156 156 152 150 157 160 158 156 153 160 166 167 164 164 175
183 159 147 113 85 91 146 155 176 237 153 173 173 161 154 147 153 158 159 155 180 217 234 228 235 224 198 222 250 258 225 197 210 197 184 180 174 164 153 150 147 154 157 163 166 173 172 178 177 171 174 158 156 159
122 103 101 74 102 140 102 60 140 142 134 150 155 159 163 186 178 179 143 187 224 227 216 235 240 235 246 245 240 232 221 222 223 193 163 151 165 161 167 163 157 161 169 176 175 176 182 179 162 164 170 163 165 171
97 78 84 108 111 83 135 63 141 157 177 193 161 173 191 190 194 144 206 228 243 231 223 225 223 220 231 220 219 232 214 207 204 174 167 168 165 164 157 164 164 164 172 183 174 169 172 166 171 171 165 161 174 168
70 95 148 139 120 144 141 166 136 135 120 178 191 201 187 171 163 212 245 240 254 246 221 219 205 215 218 214 222 220 210 192 178 161 165 161 162 166 163 169 166 162 169 161 168 171 165 169 173 166 165 172 181 176
136 179 155 148 124 125 158 159 167 181 189 195 187 184 180 164 194 232 247 274 347 342 321 293 251 242 247 243 224 213 186 180 192 181 175 177 153 136 142 156 157 155 150 157 170 169 171 173 169 168 176 183 192 184
206 161 180 170 166 182 172 175 189 177 160 174 191 145 153 169 212 244 232 346 349 1 356 346 339 314 273 262 245 210 206 188 170 182 182 176 170 168 172 175 177 188 176 169 166 173 174 178 174 176 186 196 197 184
181 183 146 3 139 133 142 138 159 164 179 185 176 171 162 210 236 226 6 24 349 323 315 303 288 283 290 306 228 148 160 168 182 176 143 158 182 188 175 172 184 182 168 167 171 174 177 179 180 183 193 201 201 186
120 153 179 175 153 172 164 176 189 196 177 157 147 188 197 215 281 337 340 341 325 311 300 289 276 273 279 276 194 146 125 117 109 107 102 88 76 116 138 131 140 154 159 164 171 170 174 177 177 181 188 197 194 188
124 149 128 162 164 199 203 197 201 162 97 168 181 170 130 69 354 332 314 323 319 314 324 332 327 327 328 17 83 119 138 145 149 159 167 163 160 176 165 141 137 144 151 162 174 175 176 172 173 179 184 187 184 174
174 10 157 169 191 214 186 25 111 79 55 80 101 108 100 121 69 8 358 353 353 343 333 352 354 359 351 353 104 88 50 55 70 165 176 180 188 158 156 152 150 149 150 154 156 161 165 158 155 138 154 162 166 172
345 95 100 89 171 37 74 81 96 101 83 72 43 89 117 139 141 34 17 1 352 356 14 13 14 17 15 18 22 61 78 38 39 53 95 140 152 160 165 159 149 147 150 153 156 158 162 166 166 173 180 186 190 193
10 118 167 165 116 135 178 147 133 97 87 78 57 77 117 96 45 12 4 1 5 10 4 5 6 355 345 340 342 351 73 70 55 49 82 131 138 144 141 142 143 145 151 154 158 161 160 170 181 191 198 201 203 210
71 75 91 109 126 170 185 167 131 98 63 74 54 50 48 61 70 8 346 1 351 331 338 332 330 333 339 345 352 1 20 12 29 83 88 102 121 133 133 139 144 148 154 159 169 175 180 180 190 199 203 204 210 213